Location: ??????
(56.0120°N, 39.1740°E)
Time: 07:25:09
(UTC+00:00)

CZ-4B R/B - Pass Details

Date: 14 April 2026
Orbit: 699 x 798 km, 98.9° (Epoch: 13 May)

Event Time Altitude Azimuth Distance (km) Brightness Sun altitude
Exits shadow 18:13:49 19° 148° (SSE) 1,673 4.7 -13.6°
Maximum altitude 18:17:15 69° 69° (ENE) 768 3.4 -13.9°
Drops below altitude 10° 18:22:00 10° 347° (NNW) 2,188 6.8 -14.4°
Sets 18:24:15 0° 345° (NNW) 3,105 7.7 -14.6°
